Time,TemperatureF,DewpointF,PressureIn,WindDirection,WindDirectionDegrees,WindSpeedMPH,WindSpeedGustMPH,Humidity,HourlyPrecipIn,Conditions,Clouds,dailyrainin,SoftwareType,DateUTC
2013-11-20 01:21:00,56.0,51.0,30.03,SE,128,1.0,2.0,84,0.00,,,-99.99,,2013-11-20 07:21:00,
2013-11-20 01:42:00,57.0,52.0,30.01,SE,135,4.0,6.0,83,0.00,,,-99.99,,2013-11-20 07:42:00,
2013-11-20 01:52:00,57.0,52.0,30.01,SE,135,4.0,6.0,83,0.00,,,-99.99,,2013-11-20 07:52:00,
2013-11-20 02:22:00,58.0,53.0,30.01,ESE,121,2.0,4.0,82,0.00,,,-99.99,,2013-11-20 08:22:00,
2013-11-20 02:52:00,58.0,53.0,30.01,SE,130,3.0,6.0,82,0.00,,,-99.99,,2013-11-20 08:52:00,
2013-11-20 03:02:00,58.0,53.0,30.01,SE,130,3.0,6.0,82,0.00,,,-99.99,,2013-11-20 09:02:00,
2013-11-20 03:12:00,58.0,53.0,30.01,SE,130,3.0,6.0,82,0.00,,,-99.99,,2013-11-20 09:12:00,
2013-11-20 03:21:00,58.0,53.0,30.01,SE,130,3.0,6.0,82,0.00,,,-99.99,,2013-11-20 09:21:00,
2013-11-20 03:54:00,59.0,53.0,30.01,SE,143,3.0,9.0,81,0.00,,,-99.99,,2013-11-20 09:54:00,
2013-11-20 04:12:00,59.0,53.0,30.01,SSE,150,6.0,11.0,81,0.00,,,-99.99,,2013-11-20 10:12:00,
2013-11-20 04:23:00,59.0,53.0,30.01,SSE,150,6.0,11.0,81,0.00,,,-99.99,,2013-11-20 10:23:00,
2013-11-20 04:32:00,59.0,53.0,30.01,SSE,150,6.0,11.0,81,0.00,,,-99.99,,2013-11-20 10:32:00,
2013-11-20 04:33:00,59.0,54.0,30.00,SE,134,4.0,10.0,83,0.00,,,-99.99,,2013-11-20 10:33:00,
2013-11-20 04:53:00,59.0,54.0,30.00,SE,134,4.0,10.0,83,0.00,,,-99.99,,2013-11-20 10:53:00,
2013-11-20 05:03:00,59.0,54.0,30.00,SE,134,4.0,10.0,83,0.00,,,-99.99,,2013-11-20 11:03:00,
2013-11-20 05:12:00,59.0,54.0,30.00,SE,134,4.0,10.0,83,0.00,,,-99.99,,2013-11-20 11:12:00,
2013-11-20 05:22:00,59.0,54.0,30.00,SE,134,4.0,10.0,83,0.00,,,-99.99,,2013-11-20 11:22:00,
2013-11-20 06:52:00,58.0,54.0,30.01,ESE,110,7.0,7.0,87,0.00,,,-99.99,,2013-11-20 12:52:00,
2013-11-20 07:21:00,57.0,54.0,30.00,ESE,121,8.0,8.0,89,0.00,,,-99.99,,2013-11-20 13:21:00,
2013-11-20 07:42:00,57.0,54.0,30.00,SE,141,4.0,9.0,90,0.00,,,-99.99,,2013-11-20 13:42:00,
2013-11-20 07:52:00,57.0,54.0,30.00,SE,141,4.0,9.0,90,0.00,,,-99.99,,2013-11-20 13:52:00,
2013-11-20 08:22:00,58.0,56.0,30.01,SSE,151,5.0,11.0,92,0.00,,,-99.99,,2013-11-20 14:22:00,
2013-11-20 08:52:00,58.0,56.0,30.02,SE,138,5.0,10.0,92,0.00,,,-99.99,,2013-11-20 14:52:00,
2013-11-20 09:21:00,58.0,56.0,30.02,East,101,6.0,9.0,92,0.00,,,-99.99,,2013-11-20 15:21:00,
2013-11-20 09:33:00,59.0,56.0,30.02,ESE,115,4.0,10.0,91,0.00,,,-99.99,,2013-11-20 15:33:00,
2013-11-20 09:53:00,59.0,56.0,30.02,ESE,115,4.0,10.0,91,0.00,,,-99.99,,2013-11-20 15:53:00,
2013-11-20 10:03:00,59.0,56.0,30.02,ESE,115,4.0,10.0,91,0.00,,,-99.99,,2013-11-20 16:03:00,
2013-11-20 10:12:00,59.0,56.0,30.02,ESE,115,4.0,10.0,91,0.00,,,-99.99,,2013-11-20 16:12:00,
2013-11-20 10:23:00,59.0,56.0,30.02,ESE,115,4.0,10.0,91,0.00,,,-99.99,,2013-11-20 16:23:00,
2013-11-20 10:52:00,60.0,57.0,30.02,SSE,155,5.0,10.0,89,0.00,,,-99.99,,2013-11-20 16:52:00,
2013-11-20 11:22:00,62.0,58.0,30.01,SSE,155,3.0,9.0,86,0.00,,,-99.99,,2013-11-20 17:22:00,
2013-11-20 11:33:00,62.0,58.0,30.01,SSE,155,3.0,9.0,86,0.00,,,-99.99,,2013-11-20 17:33:00,
2013-11-20 11:42:00,62.0,58.0,30.01,SSE,155,3.0,9.0,86,0.00,,,-99.99,,2013-11-20 17:42:00,
2013-11-20 12:21:00,64.0,59.0,29.99,SSE,159,7.0,10.0,85,0.00,,,-99.99,,2013-11-20 18:21:00,
2013-11-20 12:52:00,65.0,60.0,29.97,SE,136,10.0,11.0,84,0.00,,,-99.99,,2013-11-20 18:52:00,
2013-11-20 13:02:00,65.0,60.0,29.97,SE,136,10.0,11.0,84,0.00,,,-99.99,,2013-11-20 19:02:00,
2013-11-20 13:21:00,66.0,60.0,29.95,SSW,204,7.0,13.0,81,0.00,,,-99.99,,2013-11-20 19:21:00,
2013-11-20 13:32:00,66.0,60.0,29.95,SSW,204,7.0,13.0,81,0.00,,,-99.99,,2013-11-20 19:32:00,
2013-11-20 13:52:00,66.0,60.0,29.95,SSW,204,7.0,13.0,81,0.00,,,-99.99,,2013-11-20 19:52:00,
2013-11-20 14:11:00,69.0,61.0,29.93,SSE,161,4.0,12.0,77,0.00,,,-99.99,,2013-11-20 20:11:00,
2013-11-20 14:22:00,69.0,61.0,29.93,SSE,161,4.0,12.0,77,0.00,,,-99.99,,2013-11-20 20:22:00,
2013-11-20 14:52:00,71.0,62.0,29.90,SW,224,11.0,13.0,73,0.00,,,-99.99,,2013-11-20 20:52:00,
2013-11-20 15:02:00,71.0,62.0,29.90,SW,224,11.0,13.0,73,0.00,,,-99.99,,2013-11-20 21:02:00,
2013-11-20 15:22:00,70.0,61.0,29.91,WSW,248,10.0,15.0,74,0.00,,,-99.99,,2013-11-20 21:22:00,
2013-11-20 15:33:00,70.0,61.0,29.91,WSW,248,10.0,15.0,74,0.00,,,-99.99,,2013-11-20 21:33:00,
2013-11-20 15:43:00,70.0,61.0,29.91,WSW,248,10.0,15.0,74,0.00,,,-99.99,,2013-11-20 21:43:00,
2013-11-20 15:53:00,70.0,61.0,29.91,WSW,248,10.0,15.0,74,0.00,,,-99.99,,2013-11-20 21:53:00,
2013-11-20 16:03:00,70.0,61.0,29.91,WSW,248,10.0,15.0,74,0.00,,,-99.99,,2013-11-20 22:03:00,